Location: Alfortville
(48.8058°N, 2.4204°E)
Time: 12:33:39
(UTC+00:00)

Cosmos 1758 Rocket - Pass Details

Date: 24 October 2021
Orbit: 602 x 635 km, 82.5° (Epoch: 05 December)

Event Time Altitude Azimuth Distance (km) Brightness Sun altitude
Rises 18:13:29 0° 354° (N) 2,869 7.1 -15.4°
Reaches altitude 10° 18:15:45 10° 359° (N) 1,962 6.1 -15.8°
Maximum altitude 18:19:59 51° 76° (ENE) 765 3.6 -16.5°
Enters shadow 18:24:12 10° 153° (SSE) 1,951 5.8 -17.2°
